Time,TemperatureF,DewpointF,PressureIn,WindDirection,WindDirectionDegrees,WindSpeedMPH,WindSpeedGustMPH,Humidity,HourlyPrecipIn,Conditions,Clouds,dailyrainin,SoftwareType,DateUTC
2013-05-23 00:00:00,64.6,62.5,29.75,South,175,2.0,14.0,93,0.25,,,0.35,WUHU216DAVISVP2,2013-05-23 04:00:00,
2013-05-23 00:01:00,64.6,62.5,29.75,South,175,2.0,14.0,93,0.25,,,0.35,WUHU216DAVISVP2,2013-05-23 04:01:00,
2013-05-23 00:02:00,64.6,62.5,29.75,South,175,2.0,14.0,93,0.25,,,0.00,WUHU216DAVISVP2,2013-05-23 04:02:00,
2013-05-23 00:07:00,64.5,62.4,29.75,South,185,2.0,14.0,93,0.25,,,0.00,WUHU216DAVISVP2,2013-05-23 04:07:00,
2013-05-23 00:12:00,64.4,62.3,29.75,SE,142,4.0,6.0,93,0.24,,,0.00,WUHU216DAVISVP2,2013-05-23 04:12:00,
2013-05-23 00:17:00,64.3,62.2,29.75,South,177,2.0,6.0,93,0.21,,,0.00,WUHU216DAVISVP2,2013-05-23 04:17:00,
2013-05-23 00:22:00,64.3,62.2,29.74,South,184,2.0,6.0,93,0.20,,,0.00,WUHU216DAVISVP2,2013-05-23 04:22:00,
2013-05-23 00:27:00,64.3,62.5,29.74,SSE,168,0.0,6.0,94,0.17,,,0.00,WUHU216DAVISVP2,2013-05-23 04:27:00,
2013-05-23 00:32:00,64.3,62.5,29.74,SSE,157,6.0,8.0,94,0.15,,,0.00,WUHU216DAVISVP2,2013-05-23 04:32:00,
2013-05-23 00:37:00,64.4,62.6,29.74,SSW,197,2.0,8.0,94,0.13,,,0.00,WUHU216DAVISVP2,2013-05-23 04:37:00,
2013-05-23 00:42:00,64.4,62.6,29.74,SSW,211,0.0,8.0,94,0.07,,,0.00,WUHU216DAVISVP2,2013-05-23 04:42:00,
2013-05-23 00:47:00,64.5,62.7,29.74,SSW,209,4.0,10.0,94,0.03,,,0.00,WUHU216DAVISVP2,2013-05-23 04:47:00,
2013-05-23 00:52:00,64.5,62.7,29.74,South,172,12.0,12.0,94,0.01,,,0.01,WUHU216DAVISVP2,2013-05-23 04:52:00,
2013-05-23 00:57:00,64.6,62.8,29.74,SE,139,2.0,12.0,94,0.01,,,0.01,WUHU216DAVISVP2,2013-05-23 04:57:00,
2013-05-23 01:04:00,64.7,62.9,29.74,SSW,192,0.0,12.0,94,0.01,,,0.01,WUHU216DAVISVP2,2013-05-23 05:04:00,
2013-05-23 01:09:00,64.8,62.7,29.74,East,86,0.0,10.0,93,0.01,,,0.01,WUHU216DAVISVP2,2013-05-23 05:09:00,
2013-05-23 01:14:00,64.9,62.8,29.74,SSE,167,0.0,10.0,93,0.01,,,0.01,WUHU216DAVISVP2,2013-05-23 05:14:00,
2013-05-23 01:19:00,65.0,62.9,29.74,SSW,199,2.0,10.0,93,0.01,,,0.01,WUHU216DAVISVP2,2013-05-23 05:19:00,
2013-05-23 01:24:00,65.1,63.0,29.75,South,186,0.0,10.0,93,0.01,,,0.01,WUHU216DAVISVP2,2013-05-23 05:24:00,
2013-05-23 01:29:00,65.1,63.0,29.75,WSW,238,0.0,10.0,93,0.01,,,0.01,WUHU216DAVISVP2,2013-05-23 05:29:00,
2013-05-23 01:34:00,65.2,63.1,29.75,South,187,8.0,10.0,93,0.01,,,0.01,WUHU216DAVISVP2,2013-05-23 05:34:00,
2013-05-23 01:39:00,65.2,63.1,29.75,East,101,0.0,10.0,93,0.01,,,0.01,WUHU216DAVISVP2,2013-05-23 05:39:00,
2013-05-23 01:44:00,65.2,63.1,29.75,SSW,192,0.0,10.0,93,0.01,,,0.01,WUHU216DAVISVP2,2013-05-23 05:44:00,
2013-05-23 01:50:00,65.2,63.1,29.75,SE,126,0.0,10.0,93,0.00,,,0.01,WUHU216DAVISVP2,2013-05-23 05:50:00,
2013-05-23 01:55:00,65.2,63.1,29.75,SSW,213,8.0,10.0,93,0.00,,,0.01,WUHU216DAVISVP2,2013-05-23 05:55:00,
2013-05-23 02:00:00,65.1,63.0,29.75,SW,227,6.0,14.0,93,0.00,,,0.01,WUHU216DAVISVP2,2013-05-23 06:00:00,
2013-05-23 02:05:00,65.1,63.0,29.75,East,84,0.0,14.0,93,0.00,,,0.01,WUHU216DAVISVP2,2013-05-23 06:05:00,
2013-05-23 02:10:00,65.0,62.9,29.75,SE,139,4.0,10.0,93,0.00,,,0.01,WUHU216DAVISVP2,2013-05-23 06:10:00,
2013-05-23 02:15:00,64.9,62.8,29.75,SSW,208,4.0,10.0,93,0.00,,,0.01,WUHU216DAVISVP2,2013-05-23 06:15:00,
2013-05-23 02:20:00,64.9,62.8,29.75,WSW,247,4.0,12.0,93,0.00,,,0.01,WUHU216DAVISVP2,2013-05-23 06:20:00,
2013-05-23 02:25:00,64.8,62.7,29.75,SSW,209,8.0,12.0,93,0.00,,,0.01,WUHU216DAVISVP2,2013-05-23 06:25:00,
2013-05-23 02:30:00,64.8,62.7,29.75,SSW,210,0.0,10.0,93,0.00,,,0.01,WUHU216DAVISVP2,2013-05-23 06:30:00,
2013-05-23 02:35:00,64.7,62.6,29.75,SSE,163,0.0,10.0,93,0.00,,,0.01,WUHU216DAVISVP2,2013-05-23 06:35:00,
2013-05-23 02:40:00,64.7,62.6,29.75,South,175,4.0,14.0,93,0.00,,,0.01,WUHU216DAVISVP2,2013-05-23 06:40:00,
2013-05-23 02:45:00,64.7,62.6,29.75,South,169,0.0,14.0,93,0.00,,,0.01,WUHU216DAVISVP2,2013-05-23 06:45:00,
2013-05-23 02:50:00,64.7,62.6,29.75,SSW,193,0.0,8.0,93,0.00,,,0.01,WUHU216DAVISVP2,2013-05-23 06:50:00,
2013-05-23 02:55:00,64.7,62.6,29.75,SW,232,0.0,8.0,93,0.00,,,0.01,WUHU216DAVISVP2,2013-05-23 06:55:00,
2013-05-23 03:00:00,64.6,62.5,29.75,SW,218,0.0,8.0,93,0.00,,,0.01,WUHU216DAVISVP2,2013-05-23 07:00:00,
2013-05-23 03:05:00,64.6,62.5,29.75,SSW,212,0.0,8.0,93,0.00,,,0.01,WUHU216DAVISVP2,2013-05-23 07:05:00,
2013-05-23 03:10:00,64.5,62.7,29.75,SSW,212,0.0,2.0,94,0.00,,,0.01,WUHU216DAVISVP2,2013-05-23 07:10:00,
2013-05-23 03:15:00,64.5,62.4,29.75,SE,127,0.0,2.0,93,0.00,,,0.01,WUHU216DAVISVP2,2013-05-23 07:15:00,
2013-05-23 03:20:00,64.4,62.6,29.75,West,269,4.0,6.0,94,0.00,,,0.01,WUHU216DAVISVP2,2013-05-23 07:20:00,
2013-05-23 03:25:00,64.3,62.2,29.75,West,259,0.0,8.0,93,0.00,,,0.01,WUHU216DAVISVP2,2013-05-23 07:25:00,
2013-05-23 03:30:00,64.2,62.1,29.75,South,169,0.0,8.0,93,0.00,,,0.01,WUHU216DAVISVP2,2013-05-23 07:30:00,
2013-05-23 03:35:00,64.1,62.0,29.75,SW,227,6.0,8.0,93,0.00,,,0.01,WUHU216DAVISVP2,2013-05-23 07:35:00,
2013-05-23 03:40:00,64.0,62.2,29.75,SW,223,0.0,8.0,94,0.00,,,0.01,WUHU216DAVISVP2,2013-05-23 07:40:00,
2013-05-23 03:46:00,64.0,62.2,29.75,South,176,0.0,6.0,94,0.00,,,0.01,WUHU216DAVISVP2,2013-05-23 07:46:00,
2013-05-23 03:51:00,64.0,61.9,29.75,NNW,340,2.0,8.0,93,0.00,,,0.01,WUHU216DAVISVP2,2013-05-23 07:51:00,
2013-05-23 03:56:00,64.0,62.2,29.76,West,269,0.0,8.0,94,0.00,,,0.01,WUHU216DAVISVP2,2013-05-23 07:56:00,
2013-05-23 04:01:00,63.9,61.8,29.76,South,170,4.0,6.0,93,0.00,,,0.01,WUHU216DAVISVP2,2013-05-23 08:01:00,
2013-05-23 04:06:00,63.8,61.7,29.76,SE,146,2.0,6.0,93,0.00,,,0.01,WUHU216DAVISVP2,2013-05-23 08:06:00,
2013-05-23 04:11:00,63.8,61.7,29.76,SSW,197,0.0,8.0,93,0.00,,,0.01,WUHU216DAVISVP2,2013-05-23 08:11:00,
2013-05-23 04:16:00,63.7,61.6,29.75,East,101,0.0,8.0,93,0.00,,,0.01,WUHU216DAVISVP2,2013-05-23 08:16:00,
2013-05-23 04:21:00,63.6,61.5,29.75,SSE,167,0.0,6.0,93,0.00,,,0.01,WUHU216DAVISVP2,2013-05-23 08:21:00,
2013-05-23 04:26:00,63.5,61.4,29.75,SSW,202,4.0,6.0,93,0.00,,,0.01,WUHU216DAVISVP2,2013-05-23 08:26:00,
2013-05-23 04:31:00,63.4,61.3,29.76,SSW,211,2.0,6.0,93,0.00,,,0.01,WUHU216DAVISVP2,2013-05-23 08:31:00,
2013-05-23 04:36:00,63.3,61.5,29.76,SSW,205,0.0,6.0,94,0.00,,,0.01,WUHU216DAVISVP2,2013-05-23 08:36:00,
2013-05-23 04:41:00,63.2,61.4,29.76,SSW,202,0.0,6.0,94,0.00,,,0.01,WUHU216DAVISVP2,2013-05-23 08:41:00,
2013-05-23 04:46:00,63.2,61.4,29.76,SSW,202,0.0,6.0,94,0.00,,,0.01,WUHU216DAVISVP2,2013-05-23 08:46:00,
2013-05-23 04:51:00,63.1,61.3,29.76,SSW,202,0.0,2.0,94,0.00,,,0.01,WUHU216DAVISVP2,2013-05-23 08:51:00,
2013-05-23 04:56:00,63.0,61.2,29.76,South,181,2.0,2.0,94,0.00,,,0.01,WUHU216DAVISVP2,2013-05-23 08:56:00,
2013-05-23 05:01:00,63.0,61.2,29.76,SE,140,0.0,6.0,94,0.00,,,0.01,WUHU216DAVISVP2,2013-05-23 09:01:00,
2013-05-23 05:06:00,62.9,61.1,29.76,South,174,0.0,8.0,94,0.00,,,0.01,WUHU216DAVISVP2,2013-05-23 09:06:00,
2013-05-23 05:11:00,62.9,61.1,29.76,South,171,2.0,8.0,94,0.00,,,0.01,WUHU216DAVISVP2,2013-05-23 09:11:00,
2013-05-23 05:16:00,63.0,61.2,29.76,SSW,213,0.0,6.0,94,0.00,,,0.01,WUHU216DAVISVP2,2013-05-23 09:16:00,
2013-05-23 05:21:00,63.0,61.2,29.76,WSW,244,0.0,8.0,94,0.00,,,0.01,WUHU216DAVISVP2,2013-05-23 09:21:00,
2013-05-23 05:26:00,63.0,61.2,29.76,SW,221,0.0,8.0,94,0.00,,,0.01,WUHU216DAVISVP2,2013-05-23 09:26:00,
2013-05-23 05:31:00,63.0,61.2,29.76,SSW,198,0.0,6.0,94,0.00,,,0.01,WUHU216DAVISVP2,2013-05-23 09:31:00,
2013-05-23 05:36:00,63.0,61.2,29.76,SSW,199,0.0,4.0,94,0.00,,,0.01,WUHU216DAVISVP2,2013-05-23 09:36:00,
2013-05-23 05:41:00,63.0,61.2,29.77,SSW,210,0.0,8.0,94,0.00,,,0.01,WUHU216DAVISVP2,2013-05-23 09:41:00,
2013-05-23 05:46:00,62.9,61.1,29.77,South,189,0.0,8.0,94,0.00,,,0.01,WUHU216DAVISVP2,2013-05-23 09:46:00,
2013-05-23 05:51:00,62.9,61.1,29.77,SW,229,0.0,8.0,94,0.00,,,0.01,WUHU216DAVISVP2,2013-05-23 09:51:00,
2013-05-23 05:56:00,62.9,61.1,29.77,WSW,246,0.0,8.0,94,0.00,,,0.01,WUHU216DAVISVP2,2013-05-23 09:56:00,
2013-05-23 06:01:00,63.0,61.2,29.77,SSW,194,0.0,8.0,94,0.00,,,0.01,WUHU216DAVISVP2,2013-05-23 10:01:00,
2013-05-23 06:06:00,63.0,61.2,29.77,SSW,208,0.0,8.0,94,0.00,,,0.01,WUHU216DAVISVP2,2013-05-23 10:06:00,
2013-05-23 06:11:00,63.0,61.2,29.77,West,265,4.0,6.0,94,0.00,,,0.01,WUHU216DAVISVP2,2013-05-23 10:11:00,
2013-05-23 06:17:00,63.0,61.2,29.77,South,188,0.0,6.0,94,0.00,,,0.01,WUHU216DAVISVP2,2013-05-23 10:17:00,
2013-05-23 06:22:00,63.0,61.5,29.78,South,188,0.0,6.0,95,0.00,,,0.01,WUHU216DAVISVP2,2013-05-23 10:22:00,
2013-05-23 06:27:00,63.0,61.5,29.78,SSE,152,2.0,4.0,95,0.00,,,0.01,WUHU216DAVISVP2,2013-05-23 10:27:00,
2013-05-23 06:32:00,63.0,61.5,29.78,South,169,2.0,6.0,95,0.00,,,0.01,WUHU216DAVISVP2,2013-05-23 10:32:00,
2013-05-23 06:37:00,63.0,61.5,29.78,South,187,0.0,6.0,95,0.00,,,0.01,WUHU216DAVISVP2,2013-05-23 10:37:00,
2013-05-23 06:42:00,62.9,61.1,29.78,SSE,157,0.0,8.0,94,0.00,,,0.01,WUHU216DAVISVP2,2013-05-23 10:42:00,
2013-05-23 06:47:00,62.9,61.4,29.78,SSE,157,0.0,8.0,95,0.01,,,0.02,WUHU216DAVISVP2,2013-05-23 10:47:00,
2013-05-23 06:52:00,62.9,61.4,29.78,SSE,157,0.0,0.0,95,0.01,,,0.02,WUHU216DAVISVP2,2013-05-23 10:52:00,
2013-05-23 06:57:00,62.9,61.4,29.78,SSE,165,2.0,2.0,95,0.01,,,0.02,WUHU216DAVISVP2,2013-05-23 10:57:00,
2013-05-23 07:02:00,62.9,61.4,29.78,South,177,0.0,4.0,95,0.01,,,0.02,WUHU216DAVISVP2,2013-05-23 11:02:00,
2013-05-23 07:07:00,62.9,61.4,29.78,South,177,0.0,4.0,95,0.01,,,0.02,WUHU216DAVISVP2,2013-05-23 11:07:00,
2013-05-23 07:12:00,62.9,61.4,29.78,South,176,0.0,6.0,95,0.01,,,0.02,WUHU216DAVISVP2,2013-05-23 11:12:00,
2013-05-23 07:17:00,63.0,61.5,29.78,South,176,0.0,6.0,95,0.01,,,0.02,WUHU216DAVISVP2,2013-05-23 11:17:00,
2013-05-23 07:22:00,63.1,61.6,29.78,South,176,0.0,2.0,95,0.01,,,0.02,WUHU216DAVISVP2,2013-05-23 11:22:00,
2013-05-23 07:27:00,63.0,61.5,29.78,South,183,0.0,6.0,95,0.01,,,0.02,WUHU216DAVISVP2,2013-05-23 11:27:00,
2013-05-23 07:32:00,63.0,61.5,29.78,SSE,158,4.0,6.0,95,0.01,,,0.02,WUHU216DAVISVP2,2013-05-23 11:32:00,
2013-05-23 07:37:00,63.1,61.6,29.78,SE,144,0.0,6.0,95,0.01,,,0.02,WUHU216DAVISVP2,2013-05-23 11:37:00,
2013-05-23 07:42:00,63.4,61.9,29.79,WSW,246,0.0,8.0,95,0.01,,,0.02,WUHU216DAVISVP2,2013-05-23 11:42:00,
2013-05-23 07:47:00,63.8,62.0,29.79,WNW,294,0.0,8.0,94,0.00,,,0.02,WUHU216DAVISVP2,2013-05-23 11:47:00,
2013-05-23 07:53:00,64.1,62.3,29.79,South,182,0.0,6.0,94,0.00,,,0.02,WUHU216DAVISVP2,2013-05-23 11:53:00,
2013-05-23 07:58:00,64.5,62.4,29.79,SW,222,2.0,10.0,93,0.00,,,0.02,WUHU216DAVISVP2,2013-05-23 11:58:00,
2013-05-23 08:03:00,64.7,62.6,29.79,WSW,238,2.0,10.0,93,0.00,,,0.02,WUHU216DAVISVP2,2013-05-23 12:03:00,
2013-05-23 08:08:00,64.9,62.5,29.79,SW,231,0.0,6.0,92,0.00,,,0.02,WUHU216DAVISVP2,2013-05-23 12:08:00,
2013-05-23 08:13:00,65.1,63.0,29.80,WSW,256,0.0,4.0,93,0.00,,,0.02,WUHU216DAVISVP2,2013-05-23 12:13:00,
2013-05-23 08:18:00,65.5,62.8,29.80,SSW,200,2.0,8.0,91,0.00,,,0.02,WUHU216DAVISVP2,2013-05-23 12:18:00,
2013-05-23 08:23:00,65.7,62.7,29.80,West,269,2.0,8.0,90,0.00,,,0.02,WUHU216DAVISVP2,2013-05-23 12:23:00,
2013-05-23 08:28:00,65.9,62.9,29.79,South,189,0.0,6.0,90,0.00,,,0.02,WUHU216DAVISVP2,2013-05-23 12:28:00,
2013-05-23 08:33:00,66.1,63.1,29.80,South,188,2.0,6.0,90,0.00,,,0.02,WUHU216DAVISVP2,2013-05-23 12:33:00,
2013-05-23 08:38:00,66.3,63.6,29.80,South,190,0.0,4.0,91,0.00,,,0.02,WUHU216DAVISVP2,2013-05-23 12:38:00,
2013-05-23 08:43:00,66.4,63.4,29.80,WSW,254,0.0,4.0,90,0.00,,,0.02,WUHU216DAVISVP2,2013-05-23 12:43:00,
2013-05-23 08:48:00,66.5,62.8,29.80,WSW,250,0.0,10.0,88,0.00,,,0.02,WUHU216DAVISVP2,2013-05-23 12:48:00,
2013-05-23 08:53:00,66.6,62.3,29.80,WSW,257,2.0,10.0,86,0.00,,,0.02,WUHU216DAVISVP2,2013-05-23 12:53:00,
2013-05-23 08:58:00,66.7,62.1,29.80,WSW,253,0.0,8.0,85,0.00,,,0.02,WUHU216DAVISVP2,2013-05-23 12:58:00,
2013-05-23 09:03:00,66.7,62.1,29.80,WNW,299,2.0,8.0,85,0.00,,,0.02,WUHU216DAVISVP2,2013-05-23 13:03:00,
2013-05-23 09:08:00,66.7,61.7,29.80,SSE,163,0.0,12.0,84,0.00,,,0.02,WUHU216DAVISVP2,2013-05-23 13:08:00,
2013-05-23 09:13:00,66.7,61.7,29.80,West,273,8.0,14.0,84,0.00,,,0.02,WUHU216DAVISVP2,2013-05-23 13:13:00,
2013-05-23 09:18:00,66.8,62.2,29.80,SW,228,0.0,14.0,85,0.00,,,0.02,WUHU216DAVISVP2,2013-05-23 13:18:00,
2013-05-23 09:23:00,66.7,62.4,29.80,South,176,0.0,14.0,86,0.00,,,0.02,WUHU216DAVISVP2,2013-05-23 13:23:00,
2013-05-23 09:28:00,67.1,62.8,29.80,West,275,0.0,14.0,86,0.00,,,0.02,WUHU216DAVISVP2,2013-05-23 13:28:00,
2013-05-23 09:33:00,67.4,61.8,29.80,NNW,338,6.0,12.0,82,0.00,,,0.02,WUHU216DAVISVP2,2013-05-23 13:33:00,
2013-05-23 09:38:00,67.7,61.4,29.80,SSE,161,2.0,12.0,80,0.00,,,0.02,WUHU216DAVISVP2,2013-05-23 13:38:00,
2013-05-23 09:43:00,67.9,61.9,29.80,South,186,4.0,14.0,81,0.00,,,0.02,WUHU216DAVISVP2,2013-05-23 13:43:00,
2013-05-23 09:48:00,67.9,61.2,29.80,WNW,298,6.0,14.0,79,0.00,,,0.02,WUHU216DAVISVP2,2013-05-23 13:48:00,
2013-05-23 09:53:00,67.6,60.9,29.80,SSW,203,2.0,14.0,79,0.00,,,0.02,WUHU216DAVISVP2,2013-05-23 13:53:00,
2013-05-23 09:58:00,67.3,61.3,29.80,NE,46,0.0,14.0,81,0.00,,,0.02,WUHU216DAVISVP2,2013-05-23 13:58:00,
2013-05-23 10:03:00,67.1,61.1,29.80,WNW,287,4.0,12.0,81,0.00,,,0.02,WUHU216DAVISVP2,2013-05-23 14:03:00,
2013-05-23 10:08:00,66.9,60.9,29.80,NNE,14,2.0,8.0,81,0.00,,,0.02,WUHU216DAVISVP2,2013-05-23 14:08:00,
2013-05-23 10:13:00,66.8,60.5,29.80,ENE,61,2.0,6.0,80,0.00,,,0.02,WUHU216DAVISVP2,2013-05-23 14:13:00,
2013-05-23 10:18:00,66.9,61.3,29.81,NNE,28,2.0,8.0,82,0.00,,,0.02,WUHU216DAVISVP2,2013-05-23 14:18:00,
2013-05-23 10:23:00,67.0,60.4,29.81,NNW,330,0.0,14.0,79,0.00,,,0.02,WUHU216DAVISVP2,2013-05-23 14:23:00,
2013-05-23 10:29:00,67.3,61.0,29.81,SSW,203,0.0,16.0,80,0.00,,,0.02,WUHU216DAVISVP2,2013-05-23 14:29:00,
2013-05-23 10:34:00,67.7,61.0,29.81,NNW,340,0.0,16.0,79,0.00,,,0.02,WUHU216DAVISVP2,2013-05-23 14:34:00,
2013-05-23 10:39:00,67.9,61.2,29.81,West,279,4.0,12.0,79,0.00,,,0.02,WUHU216DAVISVP2,2013-05-23 14:39:00,
2013-05-23 10:44:00,68.1,61.4,29.81,NW,304,2.0,12.0,79,0.00,,,0.02,WUHU216DAVISVP2,2013-05-23 14:44:00,
2013-05-23 10:49:00,68.4,61.4,29.81,North,355,4.0,16.0,78,0.00,,,0.02,WUHU216DAVISVP2,2013-05-23 14:49:00,
2013-05-23 10:54:00,68.9,61.9,29.81,NNE,22,0.0,16.0,78,0.00,,,0.02,WUHU216DAVISVP2,2013-05-23 14:54:00,
2013-05-23 10:59:00,69.5,62.4,29.81,NNW,331,0.0,12.0,78,0.00,,,0.02,WUHU216DAVISVP2,2013-05-23 14:59:00,
2013-05-23 11:04:00,69.6,62.2,29.81,North,350,2.0,12.0,77,0.00,,,0.02,WUHU216DAVISVP2,2013-05-23 15:04:00,
2013-05-23 11:09:00,69.2,61.1,29.81,West,259,12.0,14.0,75,0.00,,,0.02,WUHU216DAVISVP2,2013-05-23 15:09:00,
2013-05-23 11:14:00,69.0,60.9,29.81,South,187,6.0,24.0,75,0.00,,,0.02,WUHU216DAVISVP2,2013-05-23 15:14:00,
2013-05-23 11:19:00,69.5,60.6,29.80,WSW,238,6.0,24.0,73,0.00,,,0.02,WUHU216DAVISVP2,2013-05-23 15:19:00,
2013-05-23 11:24:00,69.8,61.3,29.80,NNW,342,0.0,12.0,74,0.00,,,0.02,WUHU216DAVISVP2,2013-05-23 15:24:00,
2013-05-23 11:29:00,69.8,59.4,29.80,WSW,242,4.0,14.0,69,0.00,,,0.02,WUHU216DAVISVP2,2013-05-23 15:29:00,
2013-05-23 11:34:00,69.7,60.4,29.80,WNW,289,6.0,14.0,72,0.00,,,0.02,WUHU216DAVISVP2,2013-05-23 15:34:00,
2013-05-23 11:39:00,69.7,61.2,29.80,South,184,0.0,14.0,74,0.00,,,0.02,WUHU216DAVISVP2,2013-05-23 15:39:00,
2013-05-23 11:44:00,70.1,60.4,29.80,West,271,2.0,14.0,71,0.00,,,0.02,WUHU216DAVISVP2,2013-05-23 15:44:00,
2013-05-23 11:49:00,70.6,61.3,29.80,West,266,4.0,16.0,72,0.00,,,0.02,WUHU216DAVISVP2,2013-05-23 15:49:00,
2013-05-23 11:54:00,71.4,60.5,29.80,South,173,2.0,18.0,68,0.00,,,0.02,WUHU216DAVISVP2,2013-05-23 15:54:00,
2013-05-23 11:59:00,72.0,60.6,29.79,NNW,344,4.0,18.0,67,0.00,,,0.02,WUHU216DAVISVP2,2013-05-23 15:59:00,
2013-05-23 12:04:00,73.0,62.8,29.80,NW,325,2.0,18.0,70,0.00,,,0.02,WUHU216DAVISVP2,2013-05-23 16:04:00,
2013-05-23 12:09:00,73.0,62.4,29.80,NNE,32,0.0,10.0,69,0.00,,,0.02,WUHU216DAVISVP2,2013-05-23 16:09:00,
2013-05-23 12:14:00,71.4,62.1,29.80,NE,51,2.0,6.0,72,0.00,,,0.02,WUHU216DAVISVP2,2013-05-23 16:14:00,
2013-05-23 12:19:00,69.8,61.3,29.80,North,9,2.0,6.0,74,0.00,,,0.02,WUHU216DAVISVP2,2013-05-23 16:19:00,
2013-05-23 12:24:00,68.7,60.6,29.80,WNW,292,2.0,6.0,75,0.00,,,0.02,WUHU216DAVISVP2,2013-05-23 16:24:00,
2013-05-23 12:29:00,67.9,60.2,29.80,ENE,57,0.0,4.0,76,0.00,,,0.02,WUHU216DAVISVP2,2013-05-23 16:29:00,
2013-05-23 12:34:00,67.7,61.0,29.80,NNW,341,0.0,4.0,79,0.00,,,0.02,WUHU216DAVISVP2,2013-05-23 16:34:00,
2013-05-23 12:40:00,67.4,59.3,29.80,North,350,4.0,6.0,75,0.00,,,0.02,WUHU216DAVISVP2,2013-05-23 16:40:00,
2013-05-23 12:45:00,68.0,60.3,29.80,WNW,298,8.0,8.0,76,0.00,,,0.02,WUHU216DAVISVP2,2013-05-23 16:45:00,
2013-05-23 12:50:00,68.8,60.3,29.79,NW,317,2.0,10.0,74,0.00,,,0.02,WUHU216DAVISVP2,2013-05-23 16:50:00,
2013-05-23 12:55:00,69.3,60.0,29.79,NW,305,2.0,10.0,72,0.00,,,0.02,WUHU216DAVISVP2,2013-05-23 16:55:00,
2013-05-23 13:00:00,69.3,60.8,29.79,NW,315,4.0,10.0,74,0.00,,,0.02,WUHU216DAVISVP2,2013-05-23 17:00:00,
2013-05-23 13:05:00,69.1,60.2,29.80,South,186,2.0,10.0,73,0.00,,,0.02,WUHU216DAVISVP2,2013-05-23 17:05:00,
2013-05-23 13:10:00,69.1,59.9,29.79,WNW,302,4.0,8.0,72,0.00,,,0.02,WUHU216DAVISVP2,2013-05-23 17:10:00,
2013-05-23 13:15:00,68.8,59.9,29.79,WSW,248,0.0,8.0,73,0.00,,,0.02,WUHU216DAVISVP2,2013-05-23 17:15:00,
2013-05-23 13:20:00,69.0,59.8,29.79,NNW,335,4.0,8.0,72,0.00,,,0.02,WUHU216DAVISVP2,2013-05-23 17:20:00,
2013-05-23 13:25:00,69.7,59.3,29.79,North,5,4.0,12.0,69,0.00,,,0.02,WUHU216DAVISVP2,2013-05-23 17:25:00,
2013-05-23 13:30:00,70.2,58.9,29.79,NW,316,4.0,12.0,67,0.00,,,0.02,WUHU216DAVISVP2,2013-05-23 17:30:00,
2013-05-23 13:35:00,70.3,59.0,29.79,NNW,340,2.0,8.0,67,0.00,,,0.02,WUHU216DAVISVP2,2013-05-23 17:35:00,
2013-05-23 13:40:00,70.1,59.2,29.80,WNW,296,4.0,16.0,68,0.00,,,0.02,WUHU216DAVISVP2,2013-05-23 17:40:00,
2013-05-23 13:45:00,68.8,58.8,29.80,West,273,2.0,16.0,70,0.00,,,0.02,WUHU216DAVISVP2,2013-05-23 17:45:00,
2013-05-23 13:50:00,67.1,58.7,29.80,NNW,343,6.0,16.0,74,0.00,,,0.02,WUHU216DAVISVP2,2013-05-23 17:50:00,
2013-05-23 13:55:00,65.2,58.6,29.81,WNW,285,2.0,16.0,79,0.00,,,0.02,WUHU216DAVISVP2,2013-05-23 17:55:00,
2013-05-23 14:00:00,63.7,59.1,29.81,SW,236,0.0,16.0,85,0.01,,,0.03,WUHU216DAVISVP2,2013-05-23 18:00:00,
2013-05-23 14:05:00,62.8,58.9,29.81,SSW,213,0.0,4.0,87,0.01,,,0.03,WUHU216DAVISVP2,2013-05-23 18:05:00,
2013-05-23 14:10:00,62.3,59.0,29.81,WSW,242,0.0,4.0,89,0.05,,,0.07,WUHU216DAVISVP2,2013-05-23 18:10:00,
2013-05-23 14:16:00,62.0,59.3,29.81,WSW,238,0.0,4.0,91,0.07,,,0.09,WUHU216DAVISVP2,2013-05-23 18:16:00,
2013-05-23 14:21:00,61.6,58.9,29.81,WSW,238,0.0,2.0,91,0.09,,,0.11,WUHU216DAVISVP2,2013-05-23 18:21:00,
2013-05-23 14:26:00,61.7,59.6,29.80,WSW,238,0.0,2.0,93,0.10,,,0.12,WUHU216DAVISVP2,2013-05-23 18:26:00,
2013-05-23 14:31:00,62.1,60.3,29.80,WSW,238,0.0,2.0,94,0.11,,,0.13,WUHU216DAVISVP2,2013-05-23 18:31:00,
2013-05-23 14:36:00,62.5,60.7,29.79,NNE,30,0.0,4.0,94,0.11,,,0.13,WUHU216DAVISVP2,2013-05-23 18:36:00,
2013-05-23 14:41:00,62.7,60.9,29.79,NNE,33,0.0,4.0,94,0.11,,,0.13,WUHU216DAVISVP2,2013-05-23 18:41:00,
2013-05-23 14:46:00,63.0,61.2,29.79,NNW,342,2.0,4.0,94,0.11,,,0.13,WUHU216DAVISVP2,2013-05-23 18:46:00,
2013-05-23 14:51:00,63.1,61.0,29.79,NE,34,2.0,4.0,93,0.11,,,0.13,WUHU216DAVISVP2,2013-05-23 18:51:00,
2013-05-23 14:56:00,63.3,61.2,29.79,NW,317,2.0,4.0,93,0.10,,,0.13,WUHU216DAVISVP2,2013-05-23 18:56:00,
2013-05-23 15:01:00,63.2,60.8,29.79,ENE,58,0.0,4.0,92,0.10,,,0.13,WUHU216DAVISVP2,2013-05-23 19:01:00,
2013-05-23 15:06:00,63.3,61.2,29.79,NE,45,2.0,6.0,93,0.09,,,0.13,WUHU216DAVISVP2,2013-05-23 19:06:00,
2013-05-23 15:11:00,62.9,60.2,29.79,WNW,300,6.0,8.0,91,0.06,,,0.13,WUHU216DAVISVP2,2013-05-23 19:11:00,
2013-05-23 15:16:00,62.0,59.3,29.80,WNW,291,2.0,8.0,91,0.03,,,0.13,WUHU216DAVISVP2,2013-05-23 19:16:00,
2013-05-23 15:21:00,61.5,58.8,29.80,WNW,296,4.0,8.0,91,0.02,,,0.13,WUHU216DAVISVP2,2013-05-23 19:21:00,
2013-05-23 15:26:00,60.4,56.8,29.81,North,355,6.0,10.0,88,0.00,,,0.13,WUHU216DAVISVP2,2013-05-23 19:26:00,
2013-05-23 15:31:00,58.1,54.8,29.81,North,355,0.0,10.0,89,0.00,,,0.13,WUHU216DAVISVP2,2013-05-23 19:31:00,
2013-05-23 15:36:00,56.8,53.9,29.81,NNE,24,2.0,8.0,90,0.00,,,0.13,WUHU216DAVISVP2,2013-05-23 19:36:00,
2013-05-23 15:41:00,56.3,53.7,29.82,ESE,106,2.0,10.0,91,0.00,,,0.13,WUHU216DAVISVP2,2013-05-23 19:41:00,
2013-05-23 15:46:00,55.7,53.1,29.82,North,5,0.0,10.0,91,0.00,,,0.13,WUHU216DAVISVP2,2013-05-23 19:46:00,
2013-05-23 15:52:00,55.1,52.8,29.82,NNE,30,0.0,8.0,92,0.00,,,0.13,WUHU216DAVISVP2,2013-05-23 19:52:00,
2013-05-23 15:57:00,54.9,52.6,29.82,North,355,0.0,8.0,92,0.00,,,0.13,WUHU216DAVISVP2,2013-05-23 19:57:00,
2013-05-23 16:02:00,54.7,52.4,29.82,East,79,4.0,8.0,92,0.00,,,0.13,WUHU216DAVISVP2,2013-05-23 20:02:00,
2013-05-23 16:07:00,54.5,52.5,29.82,ENE,74,4.0,8.0,93,0.00,,,0.13,WUHU216DAVISVP2,2013-05-23 20:07:00,
2013-05-23 16:12:00,54.3,52.3,29.82,NNE,24,0.0,8.0,93,0.00,,,0.13,WUHU216DAVISVP2,2013-05-23 20:12:00,
2013-05-23 16:17:00,53.9,51.6,29.83,NW,317,0.0,14.0,92,0.00,,,0.13,WUHU216DAVISVP2,2013-05-23 20:17:00,
2013-05-23 16:22:00,53.2,50.9,29.84,NE,34,0.0,14.0,92,0.00,,,0.13,WUHU216DAVISVP2,2013-05-23 20:22:00,
2013-05-23 16:27:00,52.8,50.8,29.85,WNW,296,4.0,8.0,93,0.00,,,0.13,WUHU216DAVISVP2,2013-05-23 20:27:00,
2013-05-23 16:32:00,52.3,50.0,29.85,WNW,290,8.0,10.0,92,0.00,,,0.13,WUHU216DAVISVP2,2013-05-23 20:32:00,
2013-05-23 16:37:00,51.7,49.4,29.84,NW,317,4.0,14.0,92,0.00,,,0.13,WUHU216DAVISVP2,2013-05-23 20:37:00,
2013-05-23 16:42:00,51.4,49.4,29.85,SSE,158,2.0,14.0,93,0.00,,,0.13,WUHU216DAVISVP2,2013-05-23 20:42:00,
2013-05-23 16:47:00,51.2,49.2,29.85,NNE,19,0.0,8.0,93,0.01,,,0.14,WUHU216DAVISVP2,2013-05-23 20:47:00,
2013-05-23 16:52:00,50.8,48.8,29.85,NNW,327,2.0,8.0,93,0.02,,,0.15,WUHU216DAVISVP2,2013-05-23 20:52:00,
2013-05-23 16:57:00,50.4,48.4,29.86,NNW,329,2.0,8.0,93,0.02,,,0.15,WUHU216DAVISVP2,2013-05-23 20:57:00,
2013-05-23 17:02:00,50.0,48.0,29.86,ENE,67,2.0,8.0,93,0.02,,,0.15,WUHU216DAVISVP2,2013-05-23 21:02:00,
2013-05-23 17:07:00,49.7,47.7,29.86,North,350,2.0,8.0,93,0.02,,,0.15,WUHU216DAVISVP2,2013-05-23 21:07:00,
2013-05-23 17:12:00,49.3,47.3,29.87,ENE,65,6.0,14.0,93,0.02,,,0.15,WUHU216DAVISVP2,2013-05-23 21:12:00,
2013-05-23 17:17:00,49.0,47.3,29.87,NW,304,0.0,14.0,94,0.02,,,0.15,WUHU216DAVISVP2,2013-05-23 21:17:00,
2013-05-23 17:22:00,48.6,46.6,29.87,NNE,22,2.0,8.0,93,0.02,,,0.15,WUHU216DAVISVP2,2013-05-23 21:22:00,
2013-05-23 17:27:00,48.5,46.8,29.88,SW,227,2.0,8.0,94,0.02,,,0.15,WUHU216DAVISVP2,2013-05-23 21:27:00,
2013-05-23 17:32:00,48.3,46.6,29.88,West,275,0.0,8.0,94,0.02,,,0.15,WUHU216DAVISVP2,2013-05-23 21:32:00,
2013-05-23 17:37:00,48.1,46.4,29.88,NE,34,2.0,8.0,94,0.02,,,0.15,WUHU216DAVISVP2,2013-05-23 21:37:00,
2013-05-23 17:42:00,47.8,46.1,29.89,NE,45,2.0,16.0,94,0.02,,,0.15,WUHU216DAVISVP2,2013-05-23 21:42:00,
2013-05-23 17:48:00,47.6,45.9,29.89,West,265,2.0,16.0,94,0.01,,,0.15,WUHU216DAVISVP2,2013-05-23 21:48:00,
2013-05-23 17:53:00,47.4,45.7,29.89,North,360,0.0,6.0,94,0.00,,,0.15,WUHU216DAVISVP2,2013-05-23 21:53:00,
2013-05-23 17:58:00,47.3,45.6,29.89,ENE,67,4.0,6.0,94,0.00,,,0.15,WUHU216DAVISVP2,2013-05-23 21:58:00,
2013-05-23 18:03:00,47.3,45.9,29.89,NW,319,0.0,10.0,95,0.00,,,0.15,WUHU216DAVISVP2,2013-05-23 22:03:00,
2013-05-23 18:08:00,47.1,45.4,29.90,NNW,327,0.0,10.0,94,0.00,,,0.15,WUHU216DAVISVP2,2013-05-23 22:08:00,
2013-05-23 18:13:00,46.9,45.2,29.90,NW,304,2.0,10.0,94,0.00,,,0.15,WUHU216DAVISVP2,2013-05-23 22:13:00,
2013-05-23 18:18:00,46.8,45.1,29.91,NW,321,4.0,10.0,94,0.00,,,0.15,WUHU216DAVISVP2,2013-05-23 22:18:00,
2013-05-23 18:23:00,46.6,44.9,29.91,WNW,298,0.0,10.0,94,0.00,,,0.15,WUHU216DAVISVP2,2013-05-23 22:23:00,
2013-05-23 18:28:00,46.6,44.9,29.91,NNW,334,2.0,6.0,94,0.00,,,0.15,WUHU216DAVISVP2,2013-05-23 22:28:00,
2013-05-23 18:33:00,46.5,44.8,29.91,NNE,23,2.0,12.0,94,0.00,,,0.15,WUHU216DAVISVP2,2013-05-23 22:33:00,
2013-05-23 18:38:00,46.2,44.5,29.91,NW,313,6.0,12.0,94,0.00,,,0.15,WUHU216DAVISVP2,2013-05-23 22:38:00,
2013-05-23 18:43:00,46.1,44.7,29.91,NW,324,2.0,8.0,95,0.00,,,0.15,WUHU216DAVISVP2,2013-05-23 22:43:00,
2013-05-23 18:48:00,46.1,44.7,29.91,NW,309,0.0,6.0,95,0.00,,,0.15,WUHU216DAVISVP2,2013-05-23 22:48:00,
2013-05-23 18:53:00,46.1,44.7,29.91,WSW,255,0.0,6.0,95,0.00,,,0.15,WUHU216DAVISVP2,2013-05-23 22:53:00,
2013-05-23 18:58:00,46.1,44.7,29.92,NW,320,4.0,8.0,95,0.00,,,0.15,WUHU216DAVISVP2,2013-05-23 22:58:00,
2013-05-23 19:03:00,46.0,44.6,29.92,WNW,282,4.0,8.0,95,0.00,,,0.15,WUHU216DAVISVP2,2013-05-23 23:03:00,
2013-05-23 19:08:00,45.9,44.5,29.92,SW,221,2.0,14.0,95,0.01,,,0.16,WUHU216DAVISVP2,2013-05-23 23:08:00,
2013-05-23 19:13:00,45.8,44.4,29.92,NW,321,4.0,14.0,95,0.01,,,0.16,WUHU216DAVISVP2,2013-05-23 23:13:00,
2013-05-23 19:18:00,45.8,44.4,29.93,NW,315,0.0,12.0,95,0.01,,,0.16,WUHU216DAVISVP2,2013-05-23 23:18:00,
2013-05-23 19:23:00,45.8,44.4,29.93,WNW,288,2.0,6.0,95,0.01,,,0.16,WUHU216DAVISVP2,2013-05-23 23:23:00,
2013-05-23 19:28:00,45.6,44.2,29.93,WNW,296,2.0,14.0,95,0.01,,,0.16,WUHU216DAVISVP2,2013-05-23 23:28:00,
2013-05-23 19:34:00,45.6,44.2,29.93,NE,43,2.0,14.0,95,0.01,,,0.16,WUHU216DAVISVP2,2013-05-23 23:34:00,
2013-05-23 19:39:00,45.4,44.0,29.94,West,281,2.0,10.0,95,0.01,,,0.16,WUHU216DAVISVP2,2013-05-23 23:39:00,
2013-05-23 19:44:00,45.3,43.9,29.95,WNW,302,0.0,12.0,95,0.01,,,0.16,WUHU216DAVISVP2,2013-05-23 23:44:00,
2013-05-23 19:49:00,45.1,43.7,29.95,NW,326,4.0,12.0,95,0.01,,,0.16,WUHU216DAVISVP2,2013-05-23 23:49:00,
2013-05-23 19:54:00,44.9,43.5,29.95,NNE,17,4.0,10.0,95,0.01,,,0.16,WUHU216DAVISVP2,2013-05-23 23:54:00,
2013-05-23 19:59:00,44.9,43.5,29.96,SW,220,0.0,10.0,95,0.01,,,0.16,WUHU216DAVISVP2,2013-05-23 23:59:00,
2013-05-23 20:04:00,44.9,43.5,29.96,WNW,301,0.0,8.0,95,0.02,,,0.17,WUHU216DAVISVP2,2013-05-24 00:04:00,
2013-05-23 20:09:00,44.7,43.3,29.96,NW,315,0.0,14.0,95,0.01,,,0.17,WUHU216DAVISVP2,2013-05-24 00:09:00,
2013-05-23 20:14:00,44.6,43.2,29.97,NNW,345,2.0,14.0,95,0.01,,,0.17,WUHU216DAVISVP2,2013-05-24 00:14:00,
2013-05-23 20:19:00,44.4,43.0,29.97,NW,326,0.0,10.0,95,0.01,,,0.17,WUHU216DAVISVP2,2013-05-24 00:19:00,
2013-05-23 20:24:00,44.3,42.9,29.97,NNW,344,2.0,10.0,95,0.01,,,0.17,WUHU216DAVISVP2,2013-05-24 00:24:00,
2013-05-23 20:29:00,44.2,42.8,29.98,WNW,285,0.0,8.0,95,0.02,,,0.18,WUHU216DAVISVP2,2013-05-24 00:29:00,
2013-05-23 20:34:00,44.1,42.7,29.98,NW,312,2.0,12.0,95,0.02,,,0.18,WUHU216DAVISVP2,2013-05-24 00:34:00,
2013-05-23 20:39:00,44.0,42.6,29.98,East,97,6.0,18.0,95,0.02,,,0.18,WUHU216DAVISVP2,2013-05-24 00:39:00,
2013-05-23 20:44:00,44.1,43.0,29.98,SSW,211,0.0,18.0,96,0.03,,,0.19,WUHU216DAVISVP2,2013-05-24 00:44:00,
2013-05-23 20:49:00,43.9,42.5,29.99,NW,308,8.0,16.0,95,0.03,,,0.19,WUHU216DAVISVP2,2013-05-24 00:49:00,
2013-05-23 20:54:00,43.7,42.3,29.99,North,355,2.0,16.0,95,0.03,,,0.19,WUHU216DAVISVP2,2013-05-24 00:54:00,
2013-05-23 20:59:00,43.6,42.2,29.99,West,277,0.0,16.0,95,0.03,,,0.19,WUHU216DAVISVP2,2013-05-24 00:59:00,
2013-05-23 21:04:00,43.7,42.6,29.99,WNW,290,4.0,14.0,96,0.02,,,0.19,WUHU216DAVISVP2,2013-05-24 01:04:00,
2013-05-23 21:09:00,43.6,42.5,30.00,NE,51,0.0,14.0,96,0.03,,,0.20,WUHU216DAVISVP2,2013-05-24 01:09:00,
2013-05-23 21:14:00,43.4,42.3,30.00,NNW,334,0.0,10.0,96,0.03,,,0.20,WUHU216DAVISVP2,2013-05-24 01:14:00,
2013-05-23 21:19:00,43.2,41.8,30.00,North,360,4.0,24.0,95,0.03,,,0.20,WUHU216DAVISVP2,2013-05-24 01:19:00,
2013-05-23 21:24:00,43.2,42.1,30.00,WNW,287,0.0,24.0,96,0.03,,,0.20,WUHU216DAVISVP2,2013-05-24 01:24:00,
2013-05-23 21:29:00,43.1,42.0,30.00,NW,315,2.0,10.0,96,0.03,,,0.21,WUHU216DAVISVP2,2013-05-24 01:29:00,
2013-05-23 21:35:00,43.0,41.9,30.01,WNW,283,0.0,10.0,96,0.03,,,0.21,WUHU216DAVISVP2,2013-05-24 01:35:00,
2013-05-23 21:40:00,42.9,41.5,30.01,North,355,4.0,16.0,95,0.03,,,0.21,WUHU216DAVISVP2,2013-05-24 01:40:00,
2013-05-23 21:45:00,42.7,41.3,30.01,WNW,289,2.0,16.0,95,0.02,,,0.21,WUHU216DAVISVP2,2013-05-24 01:45:00,
2013-05-23 21:50:00,42.7,41.3,30.02,North,350,0.0,12.0,95,0.02,,,0.21,WUHU216DAVISVP2,2013-05-24 01:50:00,
2013-05-23 21:55:00,42.7,41.6,30.02,NW,315,2.0,12.0,96,0.02,,,0.21,WUHU216DAVISVP2,2013-05-24 01:55:00,
2013-05-23 22:00:00,42.7,41.6,30.02,NW,308,2.0,8.0,96,0.02,,,0.21,WUHU216DAVISVP2,2013-05-24 02:00:00,
2013-05-23 22:05:00,42.6,41.5,30.02,WNW,303,6.0,10.0,96,0.03,,,0.22,WUHU216DAVISVP2,2013-05-24 02:05:00,
2013-05-23 22:10:00,42.5,41.4,30.03,NW,318,4.0,10.0,96,0.02,,,0.22,WUHU216DAVISVP2,2013-05-24 02:10:00,
2013-05-23 22:15:00,42.4,41.3,30.03,NW,304,2.0,8.0,96,0.02,,,0.22,WUHU216DAVISVP2,2013-05-24 02:15:00,
2013-05-23 22:20:00,42.3,41.2,30.03,WNW,298,6.0,12.0,96,0.03,,,0.23,WUHU216DAVISVP2,2013-05-24 02:20:00,
2013-05-23 22:25:00,42.3,41.2,30.03,NNW,333,6.0,14.0,96,0.03,,,0.23,WUHU216DAVISVP2,2013-05-24 02:25:00,
2013-05-23 22:30:00,42.2,41.1,30.04,NE,46,6.0,16.0,96,0.02,,,0.23,WUHU216DAVISVP2,2013-05-24 02:30:00,
2013-05-23 22:35:00,42.2,41.1,30.04,North,355,0.0,16.0,96,0.02,,,0.23,WUHU216DAVISVP2,2013-05-24 02:35:00,
2013-05-23 22:40:00,42.1,41.0,30.04,NNE,13,8.0,12.0,96,0.02,,,0.23,WUHU216DAVISVP2,2013-05-24 02:40:00,
2013-05-23 22:45:00,42.1,41.0,30.04,West,265,6.0,12.0,96,0.03,,,0.24,WUHU216DAVISVP2,2013-05-24 02:45:00,
2013-05-23 22:50:00,42.1,41.0,30.04,NW,315,0.0,12.0,96,0.03,,,0.24,WUHU216DAVISVP2,2013-05-24 02:50:00,
2013-05-23 22:55:00,42.1,41.0,30.04,NNE,30,4.0,14.0,96,0.03,,,0.24,WUHU216DAVISVP2,2013-05-24 02:55:00,
2013-05-23 23:00:00,42.1,41.0,30.04,West,281,6.0,14.0,96,0.03,,,0.24,WUHU216DAVISVP2,2013-05-24 03:00:00,
2013-05-23 23:05:00,42.1,41.0,30.05,North,10,2.0,10.0,96,0.02,,,0.24,WUHU216DAVISVP2,2013-05-24 03:05:00,
2013-05-23 23:10:00,42.1,41.0,30.05,WNW,295,2.0,10.0,96,0.02,,,0.24,WUHU216DAVISVP2,2013-05-24 03:10:00,
2013-05-23 23:15:00,42.0,40.9,30.05,WNW,289,2.0,14.0,96,0.02,,,0.24,WUHU216DAVISVP2,2013-05-24 03:15:00,
2013-05-23 23:20:00,42.1,41.0,30.05,NW,312,6.0,14.0,96,0.01,,,0.24,WUHU216DAVISVP2,2013-05-24 03:20:00,
2013-05-23 23:25:00,42.1,41.0,30.05,North,355,4.0,16.0,96,0.01,,,0.24,WUHU216DAVISVP2,2013-05-24 03:25:00,
2013-05-23 23:30:00,42.1,41.0,30.05,NW,310,0.0,16.0,96,0.01,,,0.24,WUHU216DAVISVP2,2013-05-24 03:30:00,
2013-05-23 23:36:00,42.2,41.1,30.06,NW,304,6.0,12.0,96,0.01,,,0.24,WUHU216DAVISVP2,2013-05-24 03:36:00,
2013-05-23 23:41:00,42.3,41.2,30.06,NNE,14,6.0,10.0,96,0.00,,,0.24,WUHU216DAVISVP2,2013-05-24 03:41:00,
2013-05-23 23:46:00,42.3,41.2,30.06,NW,315,2.0,20.0,96,0.00,,,0.24,WUHU216DAVISVP2,2013-05-24 03:46:00,
2013-05-23 23:51:00,42.3,41.2,30.06,North,360,0.0,20.0,96,0.00,,,0.24,WUHU216DAVISVP2,2013-05-24 03:51:00,
2013-05-23 23:56:00,42.4,41.3,30.06,West,275,0.0,16.0,96,0.00,,,0.24,WUHU216DAVISVP2,2013-05-24 03:56:00,